Radioactive Concentration measured by Seawater Radiation Monitor near Fukushima Daiichi Nuclear Power Station
Date,Time,Cs137(Bq/L),Cs134(Bq/L),Total β(Bq/L)
2016/11/07,00:00,0.73,0.097,ND
2016/11/07,00:10,0.74,0.093,ND
2016/11/07,00:20,0.73,0.10,ND
2016/11/07,00:30,0.76,0.088,ND
2016/11/07,00:40,0.78,0.082,ND
2016/11/07,00:50,0.82,0.087,ND
2016/11/07,01:00,0.81,0.089,ND
2016/11/07,01:10,0.80,0.092,ND
2016/11/07,01:20,0.80,0.087,ND
2016/11/07,01:30,0.77,0.083,ND
2016/11/07,01:40,0.74,0.087,ND
2016/11/07,01:50,0.70,0.080,ND
2016/11/07,02:00,0.67,0.068,ND
2016/11/07,02:10,0.67,0.053,ND
2016/11/07,02:20,0.64,0.048,ND
2016/11/07,02:30,0.63,0.048,ND
2016/11/07,02:40,0.64,0.046,ND
2016/11/07,02:50,0.60,0.062,ND
2016/11/07,03:00,0.61,0.058,ND
2016/11/07,03:10,0.60,0.059,ND
2016/11/07,03:20,0.61,0.065,ND
2016/11/07,03:30,0.61,0.065,ND
2016/11/07,03:40,0.61,0.065,ND
2016/11/07,03:50,0.66,0.048,ND
2016/11/07,04:00,0.64,0.052,ND
2016/11/07,04:10,0.65,0.047,ND
2016/11/07,04:20,0.63,0.054,ND
2016/11/07,04:30,0.60,0.057,ND
2016/11/07,04:40,0.60,0.058,ND
2016/11/07,04:50,0.56,0.062,ND
2016/11/07,05:00,0.56,0.058,ND
2016/11/07,05:10,0.56,0.065,ND
2016/11/07,05:20,0.59,0.059,ND
2016/11/07,05:30,0.61,0.058,ND
2016/11/07,05:40,0.63,0.053,ND
2016/11/07,05:50,0.65,0.053,ND
2016/11/07,06:00,0.66,0.060,ND
2016/11/07,06:10,0.66,0.072,ND
2016/11/07,06:20,0.68,0.069,ND
2016/11/07,06:30,0.68,0.075,ND
2016/11/07,06:40,0.68,0.075,ND
2016/11/07,06:50,0.69,0.082,ND
2016/11/07,07:00,0.69,0.080,ND
2016/11/07,07:10,0.67,0.074,ND
2016/11/07,07:20,0.66,0.080,ND
2016/11/07,07:30,0.66,0.084,ND
2016/11/07,07:40,0.64,0.081,ND
2016/11/07,07:50,0.64,0.064,ND
2016/11/07,08:00,0.62,0.061,ND
2016/11/07,08:10,0.62,0.056,ND
2016/11/07,08:20,0.65,0.050,ND
2016/11/07,08:30,0.64,0.048,ND
2016/11/07,08:40,0.64,0.049,ND
2016/11/07,08:50,0.63,0.051,ND
2016/11/07,09:00,0.64,0.051,ND
2016/11/07,09:10,0.65,0.055,ND
2016/11/07,09:20,0.62,0.061,ND
2016/11/07,09:30,0.64,0.057,ND
2016/11/07,09:40,0.60,0.058,ND
2016/11/07,09:50,0.62,0.057,ND
2016/11/07,10:00,0.62,0.055,ND
2016/11/07,10:10,0.64,0.053,ND
2016/11/07,10:20,0.71,0.043,ND
2016/11/07,10:30,-,-,-
2016/11/07,10:40,-,-,-
2016/11/07,10:50,-,-,-
2016/11/07,11:00,0.67,0.064,ND
2016/11/07,11:10,0.67,0.069,ND
2016/11/07,11:20,0.71,0.064,ND
2016/11/07,11:30,0.72,0.060,ND
2016/11/07,11:40,0.72,0.065,ND
2016/11/07,11:50,0.72,0.076,ND
2016/11/07,12:00,0.72,0.085,ND
2016/11/07,12:10,0.73,0.087,ND
2016/11/07,12:20,0.72,0.083,ND
2016/11/07,12:30,0.71,0.092,ND
2016/11/07,12:40,0.73,0.093,ND
2016/11/07,12:50,0.71,0.091,ND
2016/11/07,13:00,0.72,0.077,ND
2016/11/07,13:10,0.73,0.076,ND
2016/11/07,13:20,0.72,0.085,ND
2016/11/07,13:30,0.74,0.081,ND
2016/11/07,13:40,0.72,0.078,ND
2016/11/07,13:50,0.73,0.073,ND
2016/11/07,14:00,0.73,0.073,ND
2016/11/07,14:10,0.72,0.072,ND
2016/11/07,14:20,0.71,0.088,ND
2016/11/07,14:30,0.70,0.089,ND
2016/11/07,14:40,0.69,0.092,ND
2016/11/07,14:50,0.69,0.089,ND
2016/11/07,15:00,0.66,0.094,ND
2016/11/07,15:10,0.65,0.083,ND
2016/11/07,15:20,0.64,0.070,ND
2016/11/07,15:30,0.58,0.072,ND
2016/11/07,15:40,0.64,0.055,ND
2016/11/07,15:50,0.64,0.048,ND
2016/11/07,16:00,0.66,0.037,ND
2016/11/07,16:10,0.63,0.052,ND
2016/11/07,16:20,0.62,0.047,ND
2016/11/07,16:30,0.60,0.048,ND
2016/11/07,16:40,0.59,0.059,ND
2016/11/07,16:50,0.57,0.067,ND
2016/11/07,17:00,0.56,0.071,ND
2016/11/07,17:10,0.58,0.067,ND
2016/11/07,17:20,0.62,0.054,ND
2016/11/07,17:30,0.61,0.065,ND
2016/11/07,17:40,0.61,0.068,ND
2016/11/07,17:50,0.60,0.065,ND
2016/11/07,18:00,0.62,0.058,ND
2016/11/07,18:10,0.62,0.057,ND
2016/11/07,18:20,0.57,0.074,ND
2016/11/07,18:30,0.58,0.064,ND
2016/11/07,18:40,0.56,0.053,ND
2016/11/07,18:50,0.56,0.060,ND
2016/11/07,19:00,0.57,0.054,ND
2016/11/07,19:10,0.56,0.055,ND
2016/11/07,19:20,0.57,0.040,ND
2016/11/07,19:30,0.59,0.038,ND
2016/11/07,19:40,0.58,0.044,ND
2016/11/07,19:50,0.59,0.038,ND
2016/11/07,20:00,0.56,0.046,ND
2016/11/07,20:10,0.55,0.046,ND
2016/11/07,20:20,0.56,0.056,ND
2016/11/07,20:30,0.56,0.056,ND
2016/11/07,20:40,0.57,0.057,ND
2016/11/07,20:50,0.61,0.045,ND
2016/11/07,21:00,0.62,0.041,ND
2016/11/07,21:10,0.63,0.043,ND
2016/11/07,21:20,0.63,0.042,ND
2016/11/07,21:30,0.64,0.035,ND
2016/11/07,21:40,0.63,0.029,ND
2016/11/07,21:50,0.61,0.036,ND
2016/11/07,22:00,0.60,0.041,ND
2016/11/07,22:10,0.60,0.039,ND
2016/11/07,22:20,0.61,0.035,ND
2016/11/07,22:30,0.58,0.053,ND
2016/11/07,22:40,0.57,0.054,ND
2016/11/07,22:50,0.58,0.051,ND
2016/11/07,23:00,0.57,0.056,ND
2016/11/07,23:10,0.57,0.052,ND
2016/11/07,23:20,0.57,0.052,ND
2016/11/07,23:30,0.59,0.043,ND
2016/11/07,23:40,0.60,0.044,ND
2016/11/07,23:50,0.59,0.050,ND
